Regional Weather Roundup
Issued by NWS San Diego, CA

Home | Current Version | Previous Version | Text Only | Print | Product List | Glossary On
Versions: 1 2 3 4 5 6 7 8 9 10 11 12 13 14 15 16 17 18 19 20 21 22 23 24 25 26 27 28 29 30 31 32 33 34 35 36 37 38 39 40 41 42 43 44 45 46 47 48 49 50
509
ASUS46 KSGX 251211
RWRSGX

SAN DIEGO HOURLY WEATHER ROUNDUP
NATIONAL WEATHER SERVICE SAN DIEGO CA
500 AM PDT SAT MAR 25 2017

NOTE: "FAIR" INDICATES FEW OR NO CLOUDS BELOW 12,000 FEET WITH NO
SIGNIFICANT WEATHER AND/OR OBSTRUCTIONS TO VISIBILITY.

CAZ042-043-060-061-PZZ750-775-251300-

GREATER SAN DIEGO AREA

CITY           SKY/WX    TMP DP  RH WIND       PRES   REMARKS
SAN DIEGO AP   PTCLDY    56  49  77 NW5       30.12F
NATIONAL CITY    N/A     55  50  85 CALM      30.10F
CHULA VISTA      N/A     52  49  91 SE2       30.03S
IMPERIAL BEACH CLEAR     49  46  90 CALM      30.12R
BROWN FIELD    CLEAR     50  47  89 CALM      30.10S
MIRAMAR MCAS   CLEAR     50  43  77 CALM      30.10F HAZE
MONTGOMERY FLD CLEAR     53  47  79 CALM      30.11S

$$

NORTH SAN DIEGO COUNTY

CITY           SKY/WX    TMP DP  RH WIND       PRES   REMARKS
CAMP PENDLETON CLEAR     48  47  96 CALM      30.12R
OCEANSIDE AP   PTCLDY    48  47  96 NW3       30.11S
OCEANSIDE HBR    N/A     51  49  92 NE2       30.14S
VISTA            N/A     49  44  83 CALM      30.09S
CARLSBAD       PTCLDY    54  52  93 CALM      30.10S
DEL MAR          N/A     53  51  94 CALM      30.13F
LA JOLLA SCRIP   N/A     55  53  92 W1        30.11S
FALLBROOK        N/A     51  50  99 CALM      30.09S
ESCONDIDO        N/A     52  47  84 CALM      30.12S
SAN MARCOS       N/A     51  46  83 CALM      30.12S
POWAY            N/A     48  44  87 CALM      30.13R

$$

EAST SAN DIEGO COUNTY

CITY           SKY/WX    TMP DP  RH WIND       PRES   REMARKS
RAMONA         CLEAR     43  42  97 CALM      30.09S
SANTEE LAKES     N/A     49  46  90 CALM      30.10S
LA MESA          N/A     50  46  85 CALM      30.04S
JAMUL            N/A     46  44  93 CALM      30.11S
DESCANSO N       N/A     38  29  70 NE6       30.06F WCI  33
CAMPO            N/A     40  39  97 E3        30.06F

$$

ORANGE COUNTY AND THE LOS ANGELES BASIN

CITY           SKY/WX    TMP DP  RH WIND       PRES   REMARKS
JOHN WAYNE AP  CLEAR     56  52  86 CALM      30.12S
LAKE FOREST FR   N/A     51  45  80 CALM      30.01R
HUNTINGTON BCH   N/A     56  54  91 CALM      30.12F
LOS ALAMITOS   FAIR      53  50  92 CALM      30.11F
FULLERTON      CLOUDY    57  52  83 CALM      30.10F
LONG BEACH     PTCLDY    56  50  80 N3        30.11F
L.A. AP        PTCLDY    56  51  84 NW8       30.11F
L.A. DOWNTOWN  PTCLDY    57  51  80 CALM      30.10F

$$

THE INLAND EMPIRE

CITY           SKY/WX    TMP DP  RH WIND       PRES   REMARKS
CORONA         PTCLDY    54  47  77 W9        30.11R
CHINO          PTCLDY    51  46  83 W6        30.12R
ONTARIO        MOCLDY    52  45  77 W7        30.10R
SAN BERNARDINO FAIR      51  46  80 W3        30.11R
RIVERSIDE AP   CLEAR     51  47  86 W6        30.10S
MORENO VALLEY    N/A     48  47  95 CALM      28.20S
MARCH ARB      CLEAR     44  44 100 S3        30.08F
HORSETHIEF CYN   N/A     49  41  76 W3        30.10F
PERRIS           N/A     49  48  95 S2        30.12S
HEMET EAST       N/A     49  40  71 CALM      30.13S
FRENCH VALLEY  FAIR      48  45  87 CALM      30.10S
TEMECULA         N/A     50  47  90 CALM      30.17S

$$

SAN BERNARDINO AND RIVERSIDE COUNTY MOUNTAINS

CITY           SKY/WX    TMP DP  RH WIND       PRES   REMARKS
BIG BEAR AP    PTCLDY    37  28  70 SW12G24   30.10F WCI  30
ANGELUS OAKS     N/A     43  29  56 CALM      30.00F
PINE COVE        N/A     42  21  43 NW2       30.02S

$$

SOUTHERN DESERT INCLUDING THE COACHELLA VALLEY

CITY           SKY/WX    TMP DP  RH WIND       PRES   REMARKS
PALM SPRINGS   MOCLDY    64  45  49 NW6       29.98F
PALM DESERT      N/A     62  46  55 CALM      29.87F
THERMAL        CLOUDY    67  41  38 NW8       29.95F
BLYTHE         CLOUDY    59  38  45 NE6       29.96F
IMPERIAL AP    CLOUDY    63  41  44 W8        29.97F
EL CENTRO NAS  CLOUDY    65  32  29 W10       29.99F
YUMA AZ        MOCLDY    61  45  55 SE3       29.98

$$

UPPER DESERT

CITY           SKY/WX    TMP DP  RH WIND       PRES   REMARKS
VICTORVILLE AP CLEAR     48  39  71 CALM      30.05F
HESPERIA         N/A     50  39  65 NW2       30.16R
PALMDALE       CLEAR     53  41  63 W16       30.07F
LANCASTER      PTCLDY    50  41  71 SW12      30.07F
EDWARDS AFB    PTCLDY    49  39  68 W9        30.04S
DAGGETT        PTCLDY    55  41  59 NW15      30.02S
29 PALMS N     CLOUDY    58  39  49 CALM      30.07F
NEEDLES        CLOUDY    67  31  26 N3        29.96F

$$

REGIONAL REPORTS

CITY           SKY/WX    TMP DP  RH WIND       PRES   REMARKS
SANTA BARBARA  CLEAR     52  51  97 CALM      30.11R
SANDBERG       PTCLDY    45  38  76 W9        30.10F
LAS VEGAS NV   CLOUDY    64  34  32 S13G23    29.92F
PHOENIX AZ     PTCLDY    59  40  49 E5        30.00S
TIJUANA        PTCLDY    52  43  71 CALM      30.12
ENSENADA NW      N/A     55  32  42 NE8       30.06F

$$

OFFSHORE ISLANDS

CITY           SKY/WX    TMP DP  RH WIND       PRES   REMARKS
CATALINA ARPT  MOCLDY    51  51 100 W10       30.11S
SAN NICOLAS IS CLOUDY   N/A N/A N/A W14       30.13S FOG

$$

MARINE AND OFFSHORE BUOY REPORTS

STATION/POSITION SKY/WX   TEMP    WIND        PRES    VSBY  SWELL
                          AIR SEA DIR/SP/G                  HT/PER/DIR
                          (F)     (DEG/KT/KT) (MB)    (MI)  (FT/S/D)
TANNER BANKS               59 59  280/ 14/ 17 1020.8          5/300/14
S CLEMENTE BASIN           58 60  290/ 12/ 14 1020.2          3/ 10/14
SAN NICOLAS IS.               57                N/A           5/290/11
SO. S. ROSA ISLA           57 57  280/  8/ 10 1020.4          7/290/11
W. S. BARBARA CH           57 57   10/  2/  4 1019.4F         8/280/11
M. S. BARBARA CH                                N/A           7/270/11
S. MONICA BASIN            58 59  270/ 14/ 16 1019.4F         3/250/15
S PEDRO CHANNEL               60                N/A           2/250/13
CMP PENDLETON NS              59                N/A           2/210/14
OCEANSIDE OFFSHR              61                N/A           2/190/14
TORREY PINES OTR              61                N/A           2/240/14
POINT LOMA SOUTH              62                N/A           3/230/15

$$





USA.gov is the U.S. government's official web portal to all federal, state and local government web resources and services.